IRS 1D

Satellite information

Favourite Embed

Satellite Type and Status

PAYLOADIN ORBIT

Key statistics

Satellite IRS 1D at a glance.

Uptime

10302

Days in orbit

Revolutions

≈ 14.4

Per day

Orbit

SSO

Sun Synchronous Orbit

Inclination

98.8

Latest

Satellite identification and parameters

Extended collection of information and parameters for IRS 1D.

Object identification

Identified? True

Debris? False

Object name: IRS 1D

International designator: 1997-057A

Object number (NORAD): 24971

Object ID (CCSDS): 24971

Country: INDIA (IND)

Current information (Y/N): Y

RCS size: LARGE

Orbital parameters

Period: 100.32 minutes

Inclination: 98.8293 deg

SMA: 7151.837 km

Apoapsis: 811.682 km

Periapsis: 735.722 km

RAAN: 331.1258 deg

Eccentricy: 0.00531048

Argument of periapsis: 58.8566 deg

Mean anomaly: 301.7811 deg

Mean motion: 14.35411227 rev/day

Mean motion (dot): 0.0000036 rev/day2

B* drag term: 0.00013932015 1/REarth

Two-line elements (TLE)

Creation date: Dec. 12, 2025, 10:14 a.m.

Reference frame: TEME

Reference center: EARTH

Epoch: Dec. 12, 2025, 6:08 a.m. UTC

TLE line 0: 0 IRS 1D

TLE line 1: 1 24971U 97057A 25346.25609915 .00000360 00000-0 13932-3 0 9998

TLE line 2: 2 24971 98.8293 331.1258 0053105 58.8566 301.7811 14.35411227475792

Live tracking on map

Real-time ground track for satellite IRS 1D.

In-orbit conjunctions

A list of the most updated potential collisions computed for object IRS 1D.

Target Orbit TCA Probability of collision Miss distance Type
NOAA 16 DEB SSO 2025-11-14 04:58:28 0.0001401677 966.0 (m) DEBRIS
METEOR 2-5 DEB LEO 2025-07-14 03:24:25 0.0002043988 227.0 (m) DEBRIS
COSMOS 1275 DEB LEO 2025-03-13 09:01:03 0.0001535793 871.0 (m) DEBRIS
DMSP 5D-2 F13 DEB SSO 2025-02-14 19:35:25 0.000302563 506.0 (m) DEBRIS
DMSP 5D-2 F13 DEB SSO 2025-02-13 13:29:45 0.0001200742 785.0 (m) DEBRIS

Associated space launch

IRS 1C and 1D (Indian Remote Sensing Satellite) were the second version of the series of indigenous state-of-art remote sensing satellites. Skipper was an international project initiated by BMDO to measure the bow-shock UV emissions from reentering bodies at different speeds and heights.

IRS 1D was lifted into orbit during the mission ‘PSLV | IRS-1D’, on board a PSLV space rocket.

The launch took place on Sept. 29, 1997, 4:47 a.m. from Satish Dhawan Space Centre First Launch Pad.

For more information about the launch, click the button.

Launch to space PSLV | IRS-1D
PSLV | IRS-1D

Agency: N/A

Status: Launch Failure

Launch date: Sept. 29, 1997, 4:47 a.m. UTC

Rocket: PSLV

Launch pad: Satish Dhawan Space Centre First Launch Pad

Location: Satish Dhawan Space Centre, India

...

Latest news about this satellite

There are no fresh news available about this satellite. Check back as we update our databases every day.


Newsletter sign-up

Weekly statistics, charts and insights to help you stay on top of the space industry.